STARLINK-34826

Last updated on Tue Sep 16 2025 00:02:07 GMT+0000 (Coordinated Universal Time)

1 65360U 25190K 25258.05350446 -.01602281 00000+0 -18646-1 0 9993 2 65360 53.1586 267.6064 0001771 149.6955 210.4164 15.64193798 2346
UTC large
Height (km)
Speed (km/s)
/
Latitude / Longitude
Inclination (degrees)
Orbital Period (minutes)
Azimuth
Elevation
Range (km)
Doppler Factor

Next 0 passes for location: London (51.5072 / 0.1276)

Sorry there are no passes over London.